TimeEDT,TemperatureF,Dew PointF,Humidity,Sea Level PressureIn,VisibilityMPH,Wind Direction,Wind SpeedMPH,Gust SpeedMPH,PrecipitationIn,Events,Conditions,WindDirDegrees,DateUTC
12:54 AM,55.9,46.9,72,30.12,10.0,North,4.6,-,N/A,,Clear,360,2012-10-11 04:54:00
1:54 AM,52.0,45.0,77,30.15,10.0,North,8.1,-,N/A,,Clear,360,2012-10-11 05:54:00
2:54 AM,50.0,43.0,77,30.16,10.0,North,10.4,-,N/A,,Clear,350,2012-10-11 06:54:00
3:54 AM,48.0,42.1,80,30.17,10.0,North,10.4,-,N/A,,Clear,350,2012-10-11 07:54:00
4:54 AM,48.9,42.1,77,30.20,10.0,NNW,5.8,-,N/A,,Clear,340,2012-10-11 08:54:00
5:54 AM,48.0,39.9,74,30.22,10.0,Calm,Calm,-,N/A,,Clear,0,2012-10-11 09:54:00
6:54 AM,46.9,39.0,74,30.25,10.0,NNW,8.1,-,N/A,,Clear,330,2012-10-11 10:54:00
7:54 AM,46.0,39.0,76,30.28,10.0,North,6.9,-,N/A,,Clear,360,2012-10-11 11:54:00
8:54 AM,50.0,37.0,61,30.31,10.0,North,12.7,-,N/A,,Clear,10,2012-10-11 12:54:00
9:54 AM,53.1,33.1,47,30.32,10.0,North,16.1,-,N/A,,Clear,360,2012-10-11 13:54:00
10:54 AM,57.0,33.1,40,30.33,10.0,NNE,11.5,-,N/A,,Clear,20,2012-10-11 14:54:00
11:54 AM,59.0,32.0,36,30.32,10.0,NNW,8.1,-,N/A,,Clear,330,2012-10-11 15:54:00
12:54 PM,59.0,30.0,33,30.30,10.0,Calm,Calm,-,N/A,,Clear,0,2012-10-11 16:54:00
1:54 PM,61.0,30.9,32,30.27,10.0,SW,5.8,-,N/A,,Clear,230,2012-10-11 17:54:00
2:54 PM,62.1,30.9,31,30.26,10.0,Calm,Calm,-,N/A,,Clear,0,2012-10-11 18:54:00
3:54 PM,64.9,34.0,32,30.25,10.0,Calm,Calm,-,N/A,,Clear,0,2012-10-11 19:54:00
4:54 PM,63.0,34.0,34,30.24,10.0,South,5.8,-,N/A,,Clear,180,2012-10-11 20:54:00
5:54 PM,60.8,39.2,45,30.22,10.0,SSE,4.6,-,N/A,,Clear,160,2012-10-11 21:54:00
6:54 PM,54.0,43.0,66,30.25,10.0,SE,3.5,-,N/A,,Partly Cloudy,140,2012-10-11 22:54:00
7:54 PM,51.1,44.1,77,30.24,10.0,SE,4.6,-,N/A,,Partly Cloudy,140,2012-10-11 23:54:00
8:54 PM,50.0,42.1,74,30.25,10.0,Calm,Calm,-,N/A,,Clear,0,2012-10-12 00:54:00
9:54 PM,48.9,43.0,80,30.24,10.0,SE,3.5,-,N/A,,Clear,140,2012-10-12 01:54:00
10:54 PM,48.9,43.0,80,30.23,10.0,Calm,Calm,-,N/A,,Clear,0,2012-10-12 02:54:00
11:54 PM,48.0,44.1,86,30.22,10.0,Calm,Calm,-,N/A,,Clear,0,2012-10-12 03:54:00